Location: *
(51.1248°S, 108.4023°W)
Time: 03:48:50
(UTC+00:00)

Cosmos 2278 Rocket - Pass Details

Date: 01 November 2021
Orbit: 841 x 845 km, 71.0° (Epoch: 01 December)

Event Time Altitude Azimuth Distance (km) Brightness Sun altitude
Exits shadow 04:32:58 27° 17° (NNE) 1,596 3.1 -17.2°
Maximum altitude 04:35:37 44° 71° (ENE) 1,171 2.6 -17.5°
Drops below altitude 10° 04:41:01 10° 140° (SE) 2,497 4.8 -18.0°
Sets 04:43:35 0° 146° (SE) 3,439 5.7 -18.2°
